Location: Festilli
(46.4000°N, 11.6667°E)
Time: 20:56:34
(UTC+00:00)

COSMOS 2428 - Pass Details

Date: 03 March 2021
Orbit: 845 x 858 km, 70.9° (Epoch: 20 April)

Event Time Altitude Azimuth Distance (km) Brightness Sun altitude
Rises 19:16:36 0° 196° (SSW) 3,390 5.8 -23.7°
Reaches altitude 10° 19:19:03 10° 194° (SSW) 2,460 5.1 -24.1°
Maximum altitude 19:24:38 67° 112° (ESE) 916 2.5 -25.0°
Enters shadow 19:24:44 67° 106° (ESE) 916 2.5 -25.1°
Exits shadow 19:32:03 - 30° (NNE) 3,152 5.6 -26.3°
Sets 19:32:45 0° 29° (NNE) 3,422 5.8 -26.4°
